Station GTXF1 - Pellicer Creek, Guana Tolomato Matanzas Reserve, FL Image indicating link to RSS feed of recent meteorological observations for station GTXF1


Conditions at GTXF1 as of
(5:45 pm EDT)
2145 GMT on 06/21/2024:
     

Click on the graph icon in the table below to see a time series plot of the last five days of that observation.

5-day plot - Wind Direction Wind Direction (WDIR): N ( 10 deg true )
5-day plot - Wind Speed Wind Speed (WSPD): 4.1 kts
5-day plot - Atmospheric Pressure Atmospheric Pressure (PRES):30.06 in
5-day plot - Air Temperature Air Temperature (ATMP): 79.0 °F
5-day plot - Dew Point Dew Point (DEWP): 76.3 °F
5-day plot - Heat Index Heat Index (HEAT): 83.1 °F
5-day plot -  Wind Speed, Wind Gust and Atmospheric Pressure Combined plot of Wind Speed, Gust, and Air Pressure
Previous observations
TIME
(EDT)
5-day plot - Wind Direction
WDIR
 
5-day plot - Wind Speed
WSPD
kts
5-day plot - Wind Gust
GST
kts
5-day plot - Wave Height
WVHT
ft
5-day plot - Dominant Wave Period
DPD
sec
5-day plot - Average Wave Period
APD
sec
5-day plot - Mean Wave Direction
MWD
 
5-day plot - Atmospheric Pressure
PRES
in
5-day plot - Pressure Tendency
PTDY
in
5-day plot - Air Temperature
ATMP
°F
5-day plot - Water Temperature
WTMP
°F
5-day plot - Dew Point
DEWP
°F
5-day plot - Salinity
SAL
psu
5-day plot - Visibility
VIS
nmi
5-day plot - Tide (above MLLW)
TIDE
ft
2024-06-21 05:30 pm N 5.1-----30.06- 79.7- 76.6---
2024-06-21 05:15 pmNNW 1.9-----30.06- 79.5- 76.8---
2024-06-21 05:00 pmWNW 1.0-----30.06-0.06 78.4- 75.9---
2024-06-21 04:45 pm W 1.0-----30.06- 77.4- 74.7---
2024-06-21 04:30 pm NW 6.0-----30.06- 78.3- 74.5---
2024-06-21 04:15 pm N 9.9-----30.06- 81.7- 75.7---
2024-06-21 04:00 pm N 9.9-----30.06-0.06 82.0- 76.5---
2024-06-21 03:45 pm N 11.1-----30.06- 81.5- 75.9---
2024-06-21 03:30 pm N 12.0-----30.09- 82.2- 76.3---
2024-06-21 03:15 pm N 9.9-----30.09- 83.5- 76.8---
2024-06-21 03:00 pm N 8.9-----30.09-0.03 83.3- 77.0---
2024-06-21 02:45 pm N 8.9-----30.09- 82.8- 75.7---
2024-06-21 02:30 pm N 8.9-----30.09- 82.4- 75.4---
2024-06-21 02:15 pm N 9.9-----30.12- 82.9- 76.3---
2024-06-21 02:00 pm N 11.1-----30.12+0.00 83.5- 76.5---
2024-06-21 01:45 pm N 9.9-----30.12- 83.8- 76.1---
2024-06-21 01:30 pm N 8.9-----30.12- 83.5- 75.7---
2024-06-21 01:15 pm N 8.9-----30.12- 82.8- 75.7---
2024-06-21 01:00 pm N 8.9-----30.12+0.00 83.1- 75.7---
2024-06-21 12:45 pm N 8.0-----30.12- 83.7- 75.9---
2024-06-21 12:30 pm N 8.9-----30.12- 83.5- 75.7---
2024-06-21 12:15 pm N 9.9-----30.12- 83.1- 75.7---
2024-06-21 12:00 pm N 8.9-----30.12+0.00 83.1- 75.4---
2024-06-21 11:45 amNNE 8.9-----30.12- 82.9- 75.6---
2024-06-21 11:30 amNNE 8.9-----30.12- 82.9- 75.6---
2024-06-21 11:15 am N 8.0-----30.12- 82.9- 75.6---
2024-06-21 11:00 amNNE 8.9-----30.12+0.00 82.6- 75.6---
2024-06-21 10:45 amNNE 8.9-----30.12- 82.4- 75.4---
2024-06-21 10:30 amNNE 8.9-----30.12- 82.2- 75.6---
2024-06-21 10:15 amNNE 9.9-----30.12- 82.0- 75.4---
2024-06-21 10:00 amNNE 9.9-----30.12+0.00 81.9- 75.6---
2024-06-21 09:45 amNNE 9.9-----30.12- 81.7- 75.7---
2024-06-21 09:30 amNNE 9.9-----30.12- 81.3- 75.7---
2024-06-21 09:15 amNNE 9.9-----30.12- 81.7- 76.1---
2024-06-21 09:00 amNNE 8.0-----30.12+0.00 81.7- 75.0---
2024-06-21 08:45 am NE 8.9-----30.12- 81.1- 74.8---
2024-06-21 08:30 amNNE 9.9-----30.12- 80.4- 75.9---
2024-06-21 08:15 amNNE 9.9-----30.12- 80.1- 75.6---
2024-06-21 08:00 amNNE 8.9-----30.12+0.03 79.9- 75.4---
2024-06-21 07:45 amNNE 8.9-----30.09- 79.2- 75.7---
2024-06-21 07:30 amNNE 8.9-----30.12- 78.4- 75.7---
2024-06-21 07:15 amNNE 8.9-----30.09- 78.1- 75.9---
2024-06-21 07:00 amNNE 8.0-----30.12+0.03 77.7- 75.9---
2024-06-21 06:45 amNNE 8.9-----30.12- 77.0- 75.6---
2024-06-21 06:30 amENE 2.9-----30.12- 75.7- 74.5---
2024-06-21 06:15 am E 4.1-----30.12- 74.8- 73.6---
2024-06-21 06:00 amENE 7.0-----30.12+0.00 75.7- 74.3---
2024-06-21 05:45 am E 5.1-----30.09- 76.3- 74.5---
2024-06-21 05:30 am NE 8.0-----30.09- 77.9- 75.2---
2024-06-21 05:15 am NE 8.0-----30.09- 77.7- 74.7---
2024-06-21 05:00 am NE 11.1-----30.09-0.06 78.4- 75.0---
2024-06-21 04:45 amNNE 11.1-----30.09- 78.8- 75.4---
2024-06-21 04:30 amNNE 9.9-----30.09- 79.0- 75.6---
2024-06-21 04:15 amNNE 9.9-----30.09- 78.4- 75.4---
2024-06-21 04:00 am NE 8.0-----30.09-0.06 78.3- 75.2---
2024-06-21 03:45 am NE 8.0-----30.12- 79.0- 74.5---
2024-06-21 03:30 amNNE 8.9-----30.12- 79.9- 74.7---
2024-06-21 03:15 am NE 8.9-----30.12- 79.5- 74.5---
2024-06-21 03:00 amNNE 8.9-----30.12-0.06 79.5- 74.7---
2024-06-21 02:45 amNNE 9.9-----30.12- 79.3- 74.5---
2024-06-21 02:30 amNNE 9.9-----30.15- 79.5- 74.5---
2024-06-21 02:15 am NE 8.9-----30.15- 79.5- 73.8---
2024-06-21 02:00 am NE 8.9-----30.15-0.03 79.3- 73.9---
2024-06-21 01:45 am NE 9.9-----30.15- 79.3- 74.3---
2024-06-21 01:30 am NE 8.9-----30.15- 79.9- 74.5---
2024-06-21 01:15 am NE 8.9-----30.15- 79.9- 74.1---
2024-06-21 01:00 am NE 9.9-----30.15+0.00 80.4- 74.3---
2024-06-21 12:45 am NE 9.9-----30.15- 80.4- 73.4---
2024-06-21 12:30 am NE 9.9-----30.15- 80.6- 73.2---
2024-06-21 12:15 am NE 9.9-----30.18- 80.4- 72.7---
2024-06-21 12:00 am NE 9.9-----30.18+0.03 80.4- 72.7---
2024-06-20 11:45 pm NE 9.9-----30.18- 80.4- 72.0---
2024-06-20 11:30 pm NE 8.0-----30.18- 80.4- 72.3---
2024-06-20 11:15 pm NE 8.0-----30.18- 80.2- 72.1---
2024-06-20 11:00 pm NE 8.0-----30.18+0.03 80.2- 72.1---
2024-06-20 10:45 pm NE 8.0-----30.18- 80.4- 72.3---
2024-06-20 10:30 pm NE 8.0-----30.15- 80.4- 72.3---
2024-06-20 10:15 pm NE 8.0-----30.15- 80.6- 72.1---
2024-06-20 10:00 pm NE 8.9-----30.15+0.00 80.6- 71.4---
2024-06-20 09:45 pm NE 7.0-----30.15- 80.6- 71.4---
2024-06-20 09:30 pm NE 8.0-----30.15- 80.4- 70.9---
2024-06-20 09:15 pm NE 8.0-----30.15- 80.6- 71.4---
2024-06-20 09:00 pm NE 7.0-----30.15+0.00 80.6- 71.1---
2024-06-20 08:45 pm NE 7.0-----30.15- 80.4- 70.3---
2024-06-20 08:30 pm NE 7.0-----30.15- 80.2- 69.8---
2024-06-20 08:15 pm NE 7.0-----30.15- 80.4- 70.9---
2024-06-20 08:00 pm NE 7.0-----30.15-0.03 80.6- 70.5---
2024-06-20 07:45 pm NE 8.0-----30.15- 80.8- 69.4---
2024-06-20 07:30 pm NE 8.0-----30.15- 80.8- 69.4---
2024-06-20 07:15 pm NE 8.0-----30.15- 80.6- 69.8---
2024-06-20 07:00 pmENE 7.0-----30.15-0.03 80.6- 69.8---